Location: Mount Kobau Star Party
(49.1167°N, 119.7333°W)
Time: 04:25:37
(UTC-07:00)

Vanguard 2 - Visible Passes

Search period start: 08 July 2025 00:00
Search period end: 18 July 2025 00:00
Orbit: 552 x 2901 km, 32.9° (Epoch: 07 July)

Date Brightness Start Highest point End Pass type
(mag) Time Alt. Az. Time Alt. Az. Time Alt. Az.
08 Jul 11.2 03:46:00 10° S 03:55:04 19° SE 04:05:24 10° E visible
09 Jul 11.1 03:56:32 10° S 04:06:39 23° SE 04:18:30 10° E visible
10 Jul 11.0 04:07:30 10° SSW 04:18:17 27° SE 04:31:16 10° E visible
11 Jul 11.1 02:18:53 10° SE 02:22:33 11° SE 02:26:32 10° ESE visible
11 Jul 10.9 04:18:45 10° SSW 04:29:59 31° SSE 04:43:49 10° E visible
12 Jul 10.9 02:27:46 10° SSE 02:34:01 15° SE 02:41:20 10° ESE visible
13 Jul 10.7 02:39:10 12° S 02:45:32 19° SE 02:54:49 10° ESE visible
14 Jul 10.6 02:50:34 14° S 02:57:07 23° SE 03:07:46 10° E visible
15 Jul 10.4 03:01:57 16° S 03:08:46 26° SSE 03:20:25 10° E visible
16 Jul 10.3 03:13:20 16° SSW 03:20:30 29° SSE 03:32:53 10° E visible
17 Jul 10.6 01:23:47 13° SE 01:25:12 13° SE 01:30:15 10° ESE visible
17 Jul 10.3 03:24:44 16° SSW 03:32:17 32° SSE 03:45:12 10° ESE visible
